Flag for Hungary Weather past 2 weeks in Pécs, Hungary

Now
57 °F

Light rain. Overcast.


Feels Like: 57 °F
Forecast: 38 / 52 °F
Wind: 6 mph from Northwest

Location: Pecs / Pogany

Current Time: Mar 31, 2015 at 11:38:57 PM

Latest Report: Mar 31, 2015 at 10:00 PM


Visibility: 25 mi

Pressure: 29.63 "Hg

Humidity: 64%

Dew point: 45 °F

Location of PécsLocation

Historic Weather in Pécs — Graph

°F

Pécs temperature yesterday

Maximum temperature yesterday: 63 °F (at 3:00 PM)
Minimum temperature yesterday: 46 °F (at 12:00 AM)
Average temperature yesterday: 52 °F

Past Weeks' High & Low Weather Summary

 TemperatureHumidityPressure
High70 °F (Mar 26, 3:00 PM)92% (Mar 24, 6:00 AM)30.52 "Hg (Mar 24, 6:00 AM)
Low31 °F (Mar 20, 5:00 AM)29% (Mar 19, 4:00 PM)29.47 "Hg (Mar 30, 3:00 PM)
Average48 °F60%30.01 "Hg
* Reported Mar 16 9:00 PM — Mar 31 10:00 PM, Pécs, Weather by CustomWeather, © 2015

Note: Actual official high and low records may vary slightly from our data, if they occured in-between our weather recording intervals... More about our weather records

Advertising

Pécs weather history for previous 24 hours

 ConditionsComfort  
Time TempWeatherWind HumidityBarometerVisibility
10:00 PM
Tue, Mar 31
57 °FLight rain. Overcast.6 mph64%29.63 "Hg25 mi
9:00 PM61 °FOvercast.7 mph51%29.58 "Hg47 mi
8:00 PM61 °FOvercast.6 mph50%29.54 "Hg47 mi
7:00 PM62 °FOvercast.5 mph47%29.50 "Hg47 mi
6:00 PM63 °FOvercast.3 mph46%29.50 "Hg47 mi
5:00 PM62 °FOvercast.2 mph47%29.55 "Hg47 mi
4:00 PM64 °FPartly sunny.7 mph39%29.57 "Hg47 mi
3:00 PM62 °FPartly sunny.8 mph41%29.61 "Hg47 mi
2:00 PM58 °FOvercast.9 mph42%29.65 "Hg47 mi
1:00 PM55 °FOvercast.9 mph41%29.70 "Hg47 mi
12:00 PM51 °FOvercast.12 mph46%29.77 "Hg47 mi
11:00 AM50 °FOvercast.8 mph50%29.82 "Hg47 mi
10:00 AM49 °FOvercast.5 mph45%29.85 "Hg47 mi
9:00 AM44 °FPassing clouds.3 mph68%29.87 "Hg47 mi
8:00 AM40 °FOvercast.2 mph74%29.91 "Hg47 mi
7:00 AM39 °FScattered clouds.3 mph71%29.94 "Hg43 mi
6:00 AM38 °FClear.2 mph73%29.94 "Hg37 mi
4:00 AM39 °FClear.3 mph73%29.95 "Hg37 mi
3:00 AM41 °FClear.1 mph66%29.93 "Hg37 mi
2:00 AM43 °FPassing clouds.3 mph63%29.93 "Hg37 mi
1:00 AM44 °FPassing clouds.2 mph65%29.90 "Hg37 mi
12:00 AM44 °FPassing clouds.7 mph64%29.87 "Hg37 mi
11:00 PM
Mon, Mar 30
46 °FPassing clouds.10 mph57%29.84 "Hg37 mi
Weather by CustomWeather, © 2015

See weather overviewHow to use our weather pages